Tracking 21076 objects as of 10-Aug-2020
HD Live streaming from Space Station
objects crossing your sky now
Track the most recent launched group of Starlink satellites

ARIANE 5 R/B

Track ARIANE 5 R/B now!


NORAD ID: 40942
Int'l Code: 2015-054C
Perigee: 242.9 km
Apogee: 33,181.5 km
Inclination: 6.5 °
Period: 581.7 minutes
Semi major axis: 23083 km
RCS: Unknown
Launch date: September 30, 2015
Source: France (FR)
Launch site: FRENCH GUIANA (FRGUI)

Note: This is a ROCKET BODY
aabbcc
Your satellite tracking list
Your tracking list is empty




NASA's NSSDC Master Catalog

Two Line Element Set (TLE):
1 40942U 15054C   20222.83153189  .00000968  00000-0  19646-3 0  9992
2 40942   6.5182  74.6174 7134756 291.9577   9.7932  2.47547912 42417
Source of the keplerian elements: AFSPC